DNMM

Murtala Muhammed International Airport

Airport
ICAO code
DNMM
IATA Code
LOS
Summary
ICAO Region
AFI
ICAO Territory
Location

Ikeja, Lagos State

Serving
Lagos
Elevation
135 ft
Coordinates
6° 34' 40" N , 3° 19' 18" E
KCC
Metar
Observation
DNMM 090500Z 30003KT 9999 FEW009 25/25 Q1011 NOSIG
Station
Lagos / Ikeja
Date/Time
2023-02-09 05:00:00
Wind direction
300°
Wind speed
03 kts
Lowest cloud amount
few clouds
Temperature
25°C
Dew point
25°C
Humidity
100%
QNH
1011 hPa
Weather condition
n/a

International airport serving Lagos, Nigeria.

Climatology

Tropical Savanna climate (Köppen climate classification Aw)

Runways

Designator Length Width Surface Rops
18L/36R 2742 45 ASP Yes/Yes
18R/36L 3900 60 ASP Yes/Yes

SKYbrary Partners:

Safety knowledge contributed by: